User: anonymous
Location: *
(40.4270°N, 9.4940°E)
Time: 10:12:50
(UTC+02:00)
Language:

Okean 2 - Orbit

View from above orbital plane
View from above orbital plane
View from above satellite
View from above satellite

Ground track
Ground track

The orbit data is extracted from the following two-line orbital elements,

1 20510U 90018A   14232.17466987  .00001019  00000-0  88315-4 0  7972
2 20510 082.5143 080.9955 0012465 217.5641 282.0524 14.96080915326943
Epoch (UTC): 20 August 2014 04:11:31
Eccentricity: 0.0012465
inclination: 82.5143°
perigee height: 570 km
apogee height: 587 km
right ascension of ascending node: 80.9955°
argument of perigee: 217.5641°
revolutions per day: 14.96080915
mean anomaly at epoch: 282.0524°
orbit number at epoch: 32694

The dashed part of the orbit path shows where the satellite is in the earth's shadow,  

DLR